Lid_Strength_Index
9 9 11 9 9 10 10 11 11 10 8 9 10 9 8 7 7 7 7 6 6 5 4 4 2 2 2 2 2 2 2 2 1 2 2 2 2 1 1 1 1 1 1 0
11 12 9 8 8 9 10 12 12 9 8 9 10 11 8 8 7 7 7 7 6 5 5 4 4 2 2 2 2 2 2 1 1 2 2 1 1 1 1 0 0 1 1 0
13 11 7 8 9 10 11 12 12 11 9 9 11 12 11 8 7 6 6 6 5 5 5 4 4 3 2 2 2 2 2 1 1 2 1 1 1 1 1 1 2 3 2 1
13 10 10 8 9 9 13 8 9 10 11 15 10 17 12 10 9 8 7 6 6 5 5 4 4 4 3 2 2 2 1 1 1 1 1 2 3 3 2 1 3 2 0 1
12 10 9 10 9 8 10 8 9 10 12 13 13 15 13 10 11 9 7 6 6 5 5 5 4 3 3 2 2 1 1 1 1 1 2 2 3 2 1 2 3 2 1 1
11 9 8 8 7 7 7 9 10 11 13 16 14 14 14 12 10 9 7 6 5 5 4 4 4 3 3 2 2 2 2 2 2 2 2 2 3 2 2 2 2 2 2 2
12 11 9 7 9 8 10 12 15 16 17 16 14 14 12 10 8 7 7 6 6 5 4 4 4 4 3 3 2 2 2 2 1 1 1 2 2 2 2 2 2 3 2 2
15 14 9 7 9 10 11 12 15 18 18 16 13 16 12 8 7 6 6 6 6 5 5 4 4 4 3 3 2 2 2 2 2 1 2 2 2 2 2 2 2 2 2 2
15 14 9 8 8 7 11 12 12 14 15 16 14 12 9 8 8 7 7 6 6 6 5 4 4 4 3 3 3 2 2 2 2 2 2 2 2 1 2 2 2 2 2 3
13 15 12 10 8 9 9 10 14 15 18 20 16 15 13 11 9 8 7 7 7 6 5 4 4 4 3 3 2 2 2 2 2 2 2 2 2 1 2 2 3 3 4 5
13 14 13 12 13 11 12 14 14 13 14 17 18 15 10 9 8 8 7 6 6 6 5 5 4 3 3 3 2 2 2 2 2 2 2 1 2 2 3 5 5 5 5 4
12 15 15 13 12 11 13 14 13 15 15 16 15 14 9 8 8 7 7 7 6 5 5 5 4 4 3 3 3 3 2 2 2 2 2 2 2 4 5 5 6 5 4 3
11 14 16 14 13 12 13 13 14 15 15 15 15 14 9 9 8 7 6 6 6 6 5 5 4 4 4 3 3 3 2 2 2 2 2 2 2 4 5 6 6 5 3 2
8 15 14 15 14 13 13 12 13 14 16 16 14 12 11 9 8 8 7 6 6 6 5 5 5 4 4 3 3 3 2 2 2 2 2 2 3 4 5 6 5 3 2 2
11 13 14 14 12 12 11 11 11 13 14 14 14 12 12 10 9 7 6 6 6 6 6 5 5 4 4 4 3 3 2 2 2 2 2 2 3 4 6 6 3 3 3 2
13 14 13 14 11 10 11 10 9 10 12 11 12 12 9 7 7 7 8 7 7 6 5 5 4 4 4 4 3 3 3 2 2 2 3 3 4 5 6 5 3 2 3 2
13 14 14 15 13 11 13 11 11 11 10 11 14 11 8 8 8 7 7 7 6 6 6 5 5 4 4 4 3 3 3 5 5 4 4 4 4 5 5 5 5 3 3 3
13 14 15 15 13 15 13 9 9 10 10 9 9 9 8 8 7 7 6 6 6 6 5 5 4 4 4 3 4 6 6 6 6 5 4 4 4 4 4 4 5 4 4 3
12 13 14 14 15 15 12 9 10 11 12 8 9 8 7 7 7 7 6 5 6 5 5 4 4 4 3 4 5 6 6 6 5 5 3 3 3 3 3 4 4 3 4 3
11 12 11 14 15 15 12 8 7 8 14 8 7 8 8 7 11 9 6 5 5 4 4 5 4 4 5 6 5 5 6 5 5 2 3 2 3 2 2 2 3 3 3 3
12 13 12 14 15 12 9 8 7 13 12 8 7 7 7 8 7 6 5 5 4 4 5 5 5 6 5 5 5 5 6 5 4 4 2 1 1 2 2 2 2 2 3 3
12 13 13 14 15 16 7 8 11 9 7 7 7 7 7 7 6 6 5 5 4 4 4 4 5 6 5 5 5 6 6 5 3 3 2 2 2 2 2 3 2 3 3 3
12 11 11 11 12 10 8 8 7 7 7 7 7 6 6 6 6 6 5 5 5 4 5 4 5 6 6 6 6 6 5 3 3 2 2 2 2 2 2 2 3 3 3 3
10 9 11 11 9 9 7 6 6 5 6 5 5 5 5 6 6 6 5 5 5 4 4 3 4 4 5 4 4 4 3 2 2 3 3 2 2 2 2 2 2 4 4 4
9 9 11 11 9 7 7 6 6 6 5 5 5 5 5 5 6 5 5 5 5 4 4 3 3 4 4 3 3 3 3 2 2 3 2 3 3 3 3 3 3 2 2 3
9 9 11 12 8 8 8 5 5 6 6 5 5 5 4 5 5 5 5 4 4 4 4 4 3 3 3 3 2 3 2 2 2 3 3 3 2 2 3 3 3 6 6 7